Location: Caser�o Valleseco
(28.4833°N, 16.2167°W)
Time: 07:32:01
(UTC+00:00)

Daily predictions for brighter satellites

Satellite Brightness Start Highest point End
(mag) Time Altitude Azimuth Time Altitude Azimuth Time Altitude Azimuth
Meteor 2-14 Rocket 4.5 18:37:36 10° N 18:43:42 64° E 18:49:43 10° SSE
Cosmos 1606 Rocket 3.9 18:40:16 10° S 18:44:35 73° W 18:48:58 10° N
Cosmos 1850 Rocket 4.3 18:40:18 10° NNW 18:45:37 80° WSW 18:50:57 10° S
Meteor 2-21 4.4 18:44:18 10° N 18:50:27 80° E 18:56:30 10° S
Okean-O 4.1 18:48:53 10° ESE 18:51:36 16° ENE 18:54:18 10° NNE
CZ-4B R/B 3.6 18:47:12 10° S 18:52:49 74° WSW 18:58:23 10° NNW
AQUARIUS 4.3 18:49:10 10° S 18:53:39 85° WSW 18:58:10 10° NNW
Cosmos 2369 4.5 18:49:53 10° SSE 18:54:50 31° ESE 18:59:48 10° NE
Cosmos 1400 Rocket 2.8 18:50:46 10° S 18:54:51 69° E 18:58:56 10° NNE
OAO 2 Rocket 3.8 18:50:47 10° W 18:55:41 53° NNW 19:00:32 10° ENE
Cosmos 1656 3.7 18:52:20 10° SSW 18:57:50 87° ESE 19:03:27 10° NNE
Cosmos 1689 Rocket 2.0 18:55:03 10° NNE 18:57:53 59° E 19:00:42 10° S
CZ-4 R/B 2.8 18:57:58 10° ESE 19:00:25 16° ENE 19:02:51 10° NNE
SKYMED 2 3.5 18:57:44 10° NNE 19:02:05 76° E 19:06:24 10° S
H-2A R/B 3.7 18:59:53 10° E 19:02:24 13° ENE 19:04:54 10° NE
Cosmos 220 Rocket 4.3 18:59:33 10° S 19:03:38 44° ESE 19:07:47 10° NNE
ASC 2 Rocket 3.8 19:05:06 10° WSW 19:09:04 46° S 19:13:40 11° ESE
PSLV R/B 3.8 19:05:22 10° NNE 19:09:31 76° E 19:13:36 10° S
Cosmos 2058 4.4 19:08:14 10° NE 19:10:50 16° ENE 19:11:47 15° E
Cosmos 1892 3.8 19:07:52 10° NNE 19:10:58 22° E 19:14:03 10° SE
Atlas Centaur 2 3.1 19:04:44 10° WSW 19:13:02 89° SSE 19:20:08 16° ENE
Geosat 4.1 19:09:56 10° NNE 19:14:52 56° ESE 19:19:46 10° S
Cosmos 2227 Rocket 3.1 19:11:10 10° N 19:15:47 25° ENE 19:19:55 12° ESE
Delta 142 3.8 19:12:29 10° W 19:17:00 86° S 19:21:16 17° E
Cosmos 2058 Rocket 3.6 19:13:42 10° SSW 19:18:06 64° W 19:22:33 10° N
Meteor 2-1 Rocket 4.4 19:13:01 10° SSE 19:18:15 46° E 19:23:28 10° NNE
CZ-2D R/B 3.6 19:14:57 10° SE 19:18:30 39° ENE 19:22:04 10° N
Meteor 2-16 Rocket 4.4 19:13:20 10° N 19:19:26 87° E 19:25:32 10° S
OAO 3 Rocket 3.3 19:16:28 10° WNW 19:21:12 57° NNE 19:24:08 22° E
Hubble Space Telescope 3.2 19:18:24 10° WSW 19:21:14 18° SSW 19:24:03 10° SSE
Cosmos 1697 Rocket 2.6 19:17:09 10° S 19:22:42 72° ESE 19:28:18 10° NNE
IRS-1C Rocket 4.0 19:18:29 10° SSE 19:23:41 69° ENE 19:28:55 10° N
Cosmos 1953 Rocket 3.9 19:19:43 10° NNW 19:24:07 69° W 19:28:32 10° S
Cosmos 1315 Rocket 2.9 19:22:23 10° S 19:26:09 48° E 19:29:58 10° NNE
Cosmos 1244 Rocket 4.4 19:21:24 10° N 19:27:39 84° E 19:33:56 10° S
Cosmos 1346 Rocket 3.8 19:27:00 10° NNE 19:29:48 26° ENE 19:29:48 26° ENE
NOSS 3-3 (A) 4.1 19:28:08 10° SW 19:33:40 66° WNW 19:39:44 10° NNE
NOSS 3-3 (C) 4.1 19:28:11 10° SW 19:33:47 67° WNW 19:39:52 10° NNE
Chunghua 1 4.4 19:40:16 10° WSW 19:44:03 86° SSE 19:44:54 52° ENE
Cosmos 1340 2.8 19:40:45 10° N 19:44:30 75° W 19:48:15 10° S
Cosmos 1980 Rocket 2.2 19:39:56 10° S 19:45:25 55° ESE 19:49:11 20° NE
Cosmos 968 Rocket 3.6 19:44:26 10° N 19:49:27 48° ENE 19:51:36 30° SE
Cosmos 883 Rocket 4.5 19:44:04 10° SSE 19:50:05 56° E 19:56:04 10° NNE
ASTRO E2 2.9 19:46:43 10° W 19:50:37 56° N 19:51:14 49° NE
GPS 2-04 Rocket1 3.2 19:47:31 10° W 19:51:30 53° NNW 19:52:30 42° NNE
CSL-04 Debris 4.4 19:47:15 12° SE 19:51:55 45° ENE 19:57:03 10° N
MOS 1 Rocket 3.3 19:48:18 10° NNE 19:53:09 84° E 19:58:18 10° S
Cosmos 2315 Rocket 4.1 19:48:26 10° SSE 19:54:22 48° E 20:00:16 10° NNE
S3M 4.1 19:48:38 10° S 19:54:42 75° W 20:00:51 10° N
YAOGAN 1 2.4 19:50:58 10° SSE 19:55:16 74° ENE 19:59:35 10° N
Cosmos 2297 Rocket 2.0 19:50:07 10° NNW 19:55:47 76° ENE 20:01:25 10° SSE
In-Cosmos 22 Rocket 4.4 19:52:43 10° NNW 19:58:06 68° W 20:03:35 10° S
CZ-3B R/B 3.8 19:53:33 10° WSW 20:00:30 41° S 20:01:19 37° SSE
Cosmos 1455 3.0 19:57:25 10° SSW 20:01:03 50° W 20:04:45 10° N
Cosmos 1812 Rocket 3.6 19:57:59 10° S 20:02:23 78° W 20:06:48 10° N
Delta 2 Rocket 3.9 20:00:49 10° WNW 20:06:12 76° NNE 20:07:13 59° E
CZ-2C R/B 3.3 20:03:04 10° SSE 20:08:53 86° WSW 20:14:38 10° NNW
Cosmos 1486 Rocket 3.9 20:04:57 10° NNW 20:10:18 86° ENE 20:13:20 26° SSE
Cosmos 44 Rocket 4.2 20:06:57 10° SW 20:11:26 46° WNW 20:14:14 22° N
BREEZE-M DEB (TANK) 3.4 20:07:17 10° SW 20:11:06 45° W 20:11:06 45° W
Cosmos 2278 3.8 20:09:20 10° SSW 20:15:01 73° WNW 20:18:46 22° N
Delta 198 4.4 20:13:27 10° W 20:19:12 63° S 20:20:06 56° SE
IUS-14 SRM-1 4.3 20:17:35 10° WSW 20:21:25 30° SSW 20:21:25 30° SSW
Cosmos 2219 4.0 20:20:37 10° NNW 20:26:10 51° WSW 20:31:41 10° S
Okean-O 4.3 20:23:48 10° SSW 20:27:44 32° W 20:31:43 10° NW
CZ-3A R/B 4.2 20:28:36 10° SW 20:30:06 16° SSW 20:30:06 16° SSW
ARGOS 4.5 20:36:13 29° N 20:36:13 29° N 20:38:44 10° N
CZ-4 R/B 3.6 20:32:01 10° SSW 20:35:12 23° W 20:38:21 10° NW
H-2A R/B 2.6 20:39:29 40° SSW 20:41:12 59° W 20:46:34 10° NNW
Cosmos 2227 Rocket 3.7 20:54:47 10° NW 20:59:44 32° WSW 21:01:56 24° SW
Atlas Centaur 2 3.1 20:54:43 10° W 21:02:43 75° NW 21:02:43 75° NW
Milstar 3 3.1 21:00:02 10° W 21:05:27 63° WSW 21:05:27 63° WSW
